EW5224 Weather Reports


Display with metric or nautical units.
time (UTC)temp
F
wind
direction
speed
MPH
gust
MPH
rain 1hr
in
rain 24hr
in
rain mn
in
humidity
%
barometer
mb
20190521221450 61 171 0.0 2.0 0.00 0.00 0.00 52 1018.4
20190521220950 61 149 1.0 2.0 0.00 0.00 0.00 52 1018.4
20190521220451 61 140 1.0 2.0 0.00 0.00 0.00 50 1018.5
20190521215954 61 171 0.0 1.0 0.00 0.00 0.00 51 1018.6
20190521215451 61 127 0.0 2.0 0.00 0.00 0.00 53 1018.5
20190521214950 61 127 1.0 3.0 0.00 0.00 0.00 51 1018.7
20190521214451 61 155 2.0 3.0 0.00 0.00 0.00 49 1018.5
20190521213949 62 149 1.0 3.0 0.00 0.00 0.00 51 1018.4
20190521213450 62 149 1.0 3.0 0.00 0.00 0.00 51 1018.6
20190521212949 62 159 1.0 4.0 0.00 0.00 0.00 51 1018.7
20190521212451 61 157 1.0 4.0 0.00 0.00 0.00 52 1018.5
20190521211952 61 142 2.0 4.0 0.00 0.00 0.00 51 1018.7
20190521211452 62 169 1.0 4.0 0.00 0.00 0.00 51 1018.8
20190521210950 61 133 1.0 4.0 0.00 0.00 0.00 51 1019.1
20190521210452 61 166 1.0 6.0 0.00 0.00 0.00 50 1018.7
20190521205951 61 171 2.0 6.0 0.00 0.00 0.00 51 1018.8
20190521205448 60 158 2.0 5.0 0.00 0.00 0.00 53 1018.7
20190521204955 60 148 2.0 6.0 0.00 0.00 0.00 52 1018.7
20190521204448 60 166 2.0 6.0 0.00 0.00 0.00 52 1018.7
20190521203948 60 164 2.0 5.0 0.00 0.00 0.00 53 1018.7
20190521203449 60 171 1.0 4.0 0.00 0.00 0.00 55 1018.9
20190521202949 60 151 0.0 4.0 0.00 0.00 0.00 55 1018.9
20190521202449 60 171 2.0 4.0 0.00 0.00 0.00 55 1018.9
20190521201949 59 138 0.0 6.0 0.00 0.00 0.00 56 1018.8
20190521201449 59 137 3.0 6.0 0.00 0.00 0.00 55 1018.8
20190521200948 59 172 2.0 6.0 0.00 0.00 0.00 55 1018.9
20190521200450 60 171 3.0 6.0 0.00 0.00 0.00 53 1018.9
20190521195949 60 151 3.0 7.0 0.00 0.00 0.00 53 1018.7
20190521195448 60 169 4.0 7.0 0.00 0.00 0.00 54 1018.9
20190521194951 59 165 2.0 7.0 0.00 0.00 0.00 56 1018.8
20190521194448 59 175 3.0 7.0 0.00 0.00 0.00 58 1018.6
20190521193948 59 137 1.0 5.0 0.00 0.00 0.00 59 1018.8
20190521193452 58 169 2.0 6.0 0.00 0.00 0.00 60 1019.1
20190521192955 58 144 3.0 6.0 0.00 0.00 0.00 60 1019.3
20190521192449 58 152 1.0 4.0 0.00 0.00 0.00 61 1019.3
20190521191950 58 125 1.0 4.0 0.00 0.00 0.00 60 1019.3
20190521191452 58 144 1.0 5.0 0.00 0.00 0.00 60 1019.4
20190521190947 58 127 2.0 5.0 0.00 0.00 0.00 60 1019.4
20190521190443 58 134 1.0 4.0 0.00 0.00 0.00 63 1019.6
20190521185948 58 135 1.0 3.0 0.00 0.00 0.00 63 1019.6
20190521185452 58 133 2.0 3.0 0.00 0.00 0.00 62 1019.4
20190521184948 57 155 0.0 5.0 0.00 0.00 0.00 63 1019.4
20190521184449 57 133 1.0 6.0 0.00 0.00 0.00 64 1019.5
20190521183949 57 133 2.0 6.0 0.00 0.00 0.00 62 1019.7
20190521183449 57 145 2.0 6.0 0.00 0.00 0.00 62 1019.5
20190521182947 57 130 3.0 4.0 0.00 0.00 0.00 62 1019.3
20190521182446 57 165 2.0 6.0 0.00 0.00 0.00 63 1019.3
20190521181950 56 168 3.0 6.0 0.00 0.00 0.00 61 1019.1
20190521181446 56 173 0.0 4.0 0.00 0.00 0.00 63 1019.1
20190521180948 56 172 2.0 4.0 0.00 0.00 0.00 62 1019.1
20190521180450 56 168 1.0 5.0 0.00 0.00 0.00 62 1019.1
20190521175945 56 149 2.0 5.0 0.00 0.00 0.00 62 1019.2
20190521175445 56 145 1.0 4.0 0.00 0.00 0.00 62 1019.4
20190521174949 56 148 0.0 5.0 0.00 0.00 0.00 63 1019.4
20190521174446 56 168 2.0 5.0 0.00 0.00 0.00 61 1019.4
20190521173945 56 141 1.0 7.0 0.00 0.00 0.00 61 1019.6
20190521173447 56 149 4.0 9.0 0.00 0.00 0.00 60 1019.7
20190521172946 56 165 4.0 9.0 0.00 0.00 0.00 60 1019.5
20190521172445 56 154 3.0 9.0 0.00 0.00 0.00 63 1019.4
20190521171949 56 169 2.0 6.0 0.00 0.00 0.00 61 1019.4
20190521171446 56 169 2.0 9.0 0.00 0.00 0.00 62 1019.3
20190521170944 56 171 2.0 9.0 0.00 0.00 0.00 62 1019.4
20190521170447 56 171 1.0 4.0 0.00 0.00 0.00 61 1019.6
20190521165944 56 154 1.0 4.0 0.00 0.00 0.00 62 1019.9
20190521165446 56 144 1.0 3.0 0.00 0.00 0.00 64 1019.9
20190521164945 56 127 0.0 5.0 0.00 0.00 0.00 65 1019.9
20190521164441 56 152 2.0 7.0 0.00 0.00 0.00 63 1019.8
20190521163942 56 152 2.0 7.0 0.00 0.00 0.00 64 1019.7
20190521163443 56 168 1.0 4.0 0.00 0.00 0.00 69 1019.6
20190521162940 55 152 0.0 4.0 0.00 0.00 0.00 67 1019.5
20190521162440 54 179 1.0 4.0 0.00 0.00 0.00 68 1019.5
20190521161946 54 172 1.0 3.0 0.00 0.00 0.00 66 1019.5
20190521161441 54 137 1.0 3.0 0.00 0.00 0.00 68 1019.5
20190521160943 53 130 0.0 3.0 0.00 0.00 0.00 68 1019.8
20190521160445 53 155 1.0 4.0 0.00 0.00 0.00 67 1019.8
20190521155943 53 166 1.0 4.0 0.00 0.00 0.00 68 1019.8
20190521155443 53 169 1.0 3.0 0.00 0.00 0.00 68 1019.8
20190521154943 52 133 0.0 3.0 0.00 0.00 0.00 71 1019.8
20190521154444 52 169 1.0 3.0 0.00 0.00 0.00 71 1019.8
20190521153942 52 90 1.0 3.0 0.00 0.00 0.00 70 1019.9
20190521153448 52 137 0.0 4.0 0.00 0.00 0.00 70 1020.1
20190521152942 51 155 1.0 4.0 0.00 0.00 0.00 71 1020.3
20190521152442 51 158 2.0 4.0 0.00 0.00 0.00 71 1020.4
20190521151945 51 135 1.0 2.0 0.00 0.00 0.00 72 1020.4
20190521151436 51 171 0.0 2.0 0.00 0.00 0.00 72 1020.5
20190521150943 51 138 0.0 2.0 0.00 0.00 0.00 74 1020.6
20190521150444 51 135 0.0 3.0 0.00 0.00 0.00 74 1020.8
20190521145943 51 140 0.0 3.0 0.00 0.00 0.00 73 1020.8
20190521145441 50 145 1.0 3.0 0.00 0.00 0.00 74 1020.8
20190521144945 50 157 0.0 4.0 0.00 0.00 0.00 74 1020.8
20190521144441 50 154 1.0 4.0 0.00 0.00 0.00 73 1020.7
20190521143942 50 158 0.0 4.0 0.00 0.00 0.00 75 1020.7
20190521143443 50 128 1.0 4.0 0.00 0.00 0.00 76 1020.6
20190521142941 50 162 1.0 4.0 0.00 0.00 0.00 76 1020.6
20190521142437 50 155 2.0 3.0 0.00 0.00 0.00 76 1020.6
20190521141937 50 140 0.0 2.0 0.00 0.00 0.00 77 1020.6
20190521141440 50 128 1.0 3.0 0.00 0.00 0.00 77 1020.5
20190521140940 50 141 1.0 3.0 0.00 0.00 0.00 78 1020.5
20190521140444 50 140 0.0 3.0 0.00 0.00 0.00 78 1020.5
20190521135940 50 172 0.0 2.0 0.00 0.00 0.00 78 1020.3
20190521135440 49 134 0.0 3.0 0.00 0.00 0.00 78 1020.1
20190521134944 49 140 1.0 3.0 0.00 0.00 0.00 77 1020.0
20190521134440 50 154 1.0 3.0 0.00 0.00 0.00 78 1019.7
20190521133941 50 169 1.0 2.0 0.00 0.00 0.00 79 1019.7
20190521133442 49 149 1.0 4.0 0.00 0.00 0.00 79 1019.6
20190521132941 49 169 0.0 5.0 0.00 0.00 0.00 80 1019.5
20190521132440 49 145 1.0 5.0 0.00 0.00 0.00 81 1019.4
20190521131944 49 152 2.0 4.0 0.00 0.00 0.00 82 1019.3
20190521131439 49 172 1.0 3.0 0.00 0.00 0.00 82 1018.8
20190521130940 48 169 0.0 3.0 0.00 0.00 0.00 83 1018.8
20190521130441 48 169 1.0 3.0 0.00 0.00 0.00 83 1018.9
20190521125941 48 175 0.0 3.0 0.00 0.00 0.00 84 1019.2
20190521125441 48 152 0.0 2.0 0.00 0.00 0.00 85 1019.4
20190521124941 47 164 1.0 2.0 0.00 0.00 0.00 84 1019.6
20190521124441 47 171 0.0 3.0 0.00 0.00 0.00 85 1019.5
20190521123939 47 145 1.0 3.0 0.00 0.00 0.00 85 1019.4
20190521123442 47 172 1.0 3.0 0.00 0.00 0.00 86 1019.3
20190521122939 46 154 1.0 3.0 0.00 0.00 0.00 87 1019.6
20190521122440 46 165 1.0 3.0 0.00 0.00 0.00 87 1019.6
20190521121941 46 152 0.0 2.0 0.00 0.00 0.00 88 1019.2
20190521121438 46 168 0.0 2.0 0.00 0.00 0.00 89 1019.1
20190521120939 46 169 0.0 1.0 0.00 0.00 0.00 89 1018.9
20190521120440 45 137 0.0 1.0 0.00 0.00 0.00 89 1019.1
20190521115940 45 151 0.0 1.0 0.00 0.00 0.00 90 1018.8
20190521115438 45 134 0.0 2.0 0.00 0.00 0.00 90 1018.8
20190521114941 45 154 0.0 2.0 0.00 0.00 0.00 91 1018.7
20190521114438 45 161 0.0 3.0 0.00 0.00 0.00 91 1018.7
20190521113939 44 157 1.0 3.0 0.00 0.00 0.00 92 1018.9
20190521113439 44 168 0.0 2.0 0.00 0.00 0.00 92 1018.9
20190521112938 44 171 0.0 1.0 0.00 0.00 0.00 92 1018.8
20190521112439 43 162 0.0 0.0 0.00 0.00 0.00 92 1018.8
20190521111941 42 162 0.0 0.0 0.00 0.00 0.00 92 1018.9
20190521111439 42 162 0.0 0.0 0.00 0.00 0.00 92 1018.9
20190521110937 42 162 0.0 0.0 0.00 0.00 0.00 92 1019.2
20190521110441 42 162 0.0 0.0 0.00 0.00 0.00 92 1018.9
20190521105938 41 162 0.0 0.0 0.00 0.00 0.00 92 1018.6
20190521105439 41 162 0.0 0.0 0.00 0.00 0.00 92 1018.5
20190521104939 40 162 0.0 0.0 0.00 0.00 0.00 92 1018.7
20190521104435 40 162 0.0 0.0 0.00 0.00 0.00 92 1018.7
20190521103934 40 162 0.0 0.0 0.00 0.00 0.00 92 1018.5
20190521103438 40 162 0.0 0.0 0.00 0.00 0.00 92 1018.4
20190521102933 40 162 0.0 0.0 0.00 0.00 0.00 92 1018.1
20190521102432 40 162 0.0 0.0 0.00 0.00 0.00 91 1017.8
20190521101936 40 162 0.0 0.0 0.00 0.00 0.00 91 1017.6
20190521101436 40 162 0.0 0.0 0.00 0.00 0.00 91 1017.6
20190521100937 41 162 0.0 0.0 0.00 0.00 0.00 91 1017.6
20190521100438 41 162 0.0 0.0 0.00 0.00 0.00 91 1017.7
20190521095936 41 162 0.0 0.0 0.00 0.00 0.00 91 1017.7
20190521095436 41 162 0.0 0.0 0.00 0.00 0.00 91 1017.8
20190521094938 41 162 0.0 0.0 0.00 0.00 0.00 90 1017.7
20190521094436 42 162 0.0 0.0 0.00 0.00 0.00 90 1017.8
20190521093936 42 162 0.0 0.0 0.00 0.00 0.00 90 1017.7
20190521093438 42 162 0.0 0.0 0.00 0.00 0.00 90 1017.7
20190521092936 42 162 0.0 0.0 0.00 0.00 0.00 90 1017.9
20190521092437 42 162 0.0 0.0 0.00 0.00 0.00 90 1018.2
20190521091937 42 161 0.0 0.0 0.00 0.00 0.00 90 1017.9
20190521091435 42 171 0.0 0.0 0.00 0.00 0.00 90 1017.9
20190521090936 42 171 0.0 0.0 0.00 0.00 0.00 90 1017.8
20190521090437 42 171 0.0 0.0 0.00 0.00 0.00 89 1017.6
20190521085935 42 171 0.0 0.0 0.00 0.00 0.00 89 1017.6
20190521085435 42 171 0.0 0.0 0.00 0.00 0.00 89 1017.5
20190521084938 43 171 0.0 0.0 0.00 0.00 0.00 88 1017.3
20190521084435 43 171 0.0 0.0 0.00 0.00 0.00 88 1017.3
20190521083936 43 171 0.0 0.0 0.00 0.00 0.00 88 1017.3
20190521083436 43 171 0.0 0.0 0.00 0.00 0.00 87 1017.3
20190521082940 44 171 0.0 0.0 0.00 0.00 0.00 87 1017.2
20190521082435 44 171 0.0 0.0 0.00 0.00 0.00 87 1017.3
20190521081939 44 171 0.0 1.0 0.00 0.00 0.00 86 1017.4
20190521081434 44 171 0.0 1.0 0.00 0.00 0.00 86 1017.5
20190521080935 44 152 0.0 1.0 0.00 0.00 0.00 85 1017.6
20190521080437 44 152 0.0 3.0 0.00 0.00 0.00 85 1017.4
20190521075934 44 169 1.0 3.0 0.00 0.00 0.00 85 1017.3
20190521075433 45 166 0.0 0.0 0.00 0.00 0.00 84 1017.4
20190521074938 45 166 0.0 0.0 0.00 0.00 0.00 84 1017.4
20190521074434 45 158 0.0 4.0 0.00 0.00 0.00 84 1017.4
20190521073932 45 171 1.0 4.0 0.00 0.00 0.00 83 1017.2
20190521073436 45 168 0.0 1.0 0.00 0.00 0.00 83 1017.1
20190521072933 45 168 0.0 0.0 0.00 0.00 0.00 82 1016.9
20190521072434 46 168 0.0 3.0 0.00 0.00 0.00 82 1016.9
20190521071939 46 168 1.0 3.0 0.00 0.00 0.00 81 1017.1
20190521071434 46 159 0.0 5.0 0.00 0.00 0.00 81 1017.1
20190521070935 46 164 1.0 5.0 0.00 0.00 0.00 81 1017.3
20190521070435 46 168 1.0 4.0 0.00 0.00 0.00 80 1017.3
20190521065932 47 172 1.0 4.0 0.00 0.00 0.00 79 1017.2
20190521065430 47 168 1.0 4.0 0.00 0.00 0.00 78 1017.2
20190521064933 47 168 1.0 4.0 0.00 0.00 0.00 78 1017.2
20190521064432 47 173 1.0 4.0 0.00 0.00 0.00 78 1017.2
20190521063930 47 151 0.0 3.0 0.00 0.00 0.00 78 1017.2
20190521063430 47 158 0.0 4.0 0.00 0.00 0.00 77 1017.2
20190521062929 48 173 2.0 4.0 0.00 0.00 0.00 77 1016.9
20190521062433 48 172 0.0 2.0 0.00 0.00 0.00 78 1016.9
20190521061934 48 172 0.0 3.0 0.00 0.00 0.00 78 1017.0
20190521061434 48 152 1.0 4.0 0.00 0.00 0.00 78 1016.8
20190521060932 48 148 1.0 5.0 0.00 0.00 0.00 78 1016.8
20190521060435 48 157 2.0 5.0 0.00 0.00 0.00 78 1016.8
20190521055933 48 151 3.0 5.0 0.00 0.00 0.00 79 1016.8
20190521055432 48 164 1.0 4.0 0.00 0.00 0.00 79 1016.8
20190521054934 48 92 0.0 4.0 0.00 0.00 0.00 79 1016.8
20190521054432 48 173 1.0 7.0 0.00 0.00 0.00 79 1016.8
20190521053928 48 175 3.0 7.0 0.00 0.00 0.00 79 1016.9
20190521053431 48 157 0.0 4.0 0.00 0.00 0.00 80 1016.9
20190521052933 48 162 1.0 7.0 0.00 0.00 0.00 80 1017.1
20190521052432 48 176 2.0 7.0 0.00 0.00 0.00 80 1017.2
20190521051933 48 151 2.0 9.0 0.00 0.00 0.00 81 1017.2
20190521051431 48 166 3.0 9.0 0.00 0.00 0.00 81 1017.1
20190521050931 48 166 2.0 10.0 0.00 0.00 0.00 81 1017.1
20190521050434 48 165 4.0 10.0 0.00 0.00 0.00 82 1017.0
20190521045931 49 176 2.0 11.0 0.00 0.00 0.00 82 1017.0
20190521045431 49 169 4.0 11.0 0.00 0.00 0.00 82 1017.0
20190521044933 49 176 3.0 13.0 0.00 0.00 0.00 82 1017.0
20190521044436 49 176 5.0 13.0 0.00 0.00 0.00 82 1016.8
20190521043933 49 171 2.0 6.0 0.00 0.00 0.00 82 1016.7
20190521043434 50 175 2.0 10.0 0.00 0.00 0.00 81 1016.6
20190521042930 50 168 3.0 11.0 0.00 0.00 0.00 80 1016.6
20190521042431 50 175 3.0 11.0 0.00 0.00 0.00 80 1016.5
20190521041932 51 158 3.0 14.0 0.00 0.00 0.00 80 1016.5
20190521041430 51 165 3.0 14.0 0.00 0.00 0.00 79 1016.5
20190521040931 51 169 3.0 9.0 0.00 0.00 0.00 77 1016.6
20190521040432 52 155 2.0 6.0 0.00 0.00 0.00 76 1016.5
20190521035931 52 169 2.0 5.0 0.00 0.00 0.00 75 1016.3
20190521035430 52 165 2.0 6.0 0.00 0.00 0.00 74 1016.1
20190521034933 52 158 2.0 6.0 0.00 0.00 0.00 74 1016.0
20190521034431 52 164 1.0 7.0 0.00 0.00 0.00 74 1015.9
20190521033932 52 149 1.0 7.0 0.00 0.00 0.00 74 1015.9
20190521033432 52 172 2.0 6.0 0.00 0.00 0.00 74 1015.9
20190521032930 52 164 2.0 6.0 0.00 0.00 0.00 74 1015.8
20190521032430 52 158 4.0 6.0 0.00 0.00 0.00 73 1015.8
20190521031931 52 145 0.0 11.0 0.00 0.01 0.00 73 1015.8
20190521031430 52 159 3.0 11.0 0.00 0.01 0.00 73 1015.7
20190521030929 52 176 2.0 7.0 0.00 0.01 0.00 73 1015.9
20190521030433 53 172 1.0 6.0 0.00 0.01 0.00 73 1015.9
20190521025930 53 154 1.0 7.0 0.00 0.01 0.00 73 1015.9
20190521025431 53 157 3.0 9.0 0.00 0.01 0.00 73 1016.0
20190521024932 53 179 3.0 9.0 0.00 0.01 0.00 73 1016.0
20190521024429 53 173 3.0 7.0 0.00 0.01 0.00 73 1016.0
20190521023929 53 162 1.0 7.0 0.00 0.01 0.00 74 1016.1
20190521023430 53 154 2.0 7.0 0.00 0.01 0.00 73 1016.2
20190521022930 53 158 2.0 10.0 0.00 0.01 0.00 73 1016.2
20190521022429 53 166 4.0 11.0 0.00 0.01 0.00 72 1016.1
20190521021931 53 176 2.0 11.0 0.00 0.01 0.00 74 1016.1
20190521021430 53 159 3.0 11.0 0.00 0.01 0.00 74 1016.0
20190521020929 54 173 1.0 12.0 0.00 0.01 0.00 74 1016.0
20190521020430 54 159 4.0 12.0 0.00 0.01 0.00 74 1016.2
20190521015928 54 149 4.0 9.0 0.00 0.01 0.00 73 1015.9
20190521015428 54 148 2.0 7.0 0.00 0.01 0.00 73 1015.8
20190521014930 54 148 2.0 9.0 0.00 0.01 0.00 72 1015.8
20190521014424 54 155 3.0 9.0 0.00 0.02 0.00 72 1015.7
20190521013927 54 133 3.0 7.0 0.00 0.02 0.00 72 1015.7
20190521013431 54 149 2.0 7.0 0.00 0.02 0.00 71 1015.7
20190521012927 54 154 2.0 7.0 0.00 0.02 0.00 71 1015.6
20190521012429 55 176 1.0 6.0 0.00 0.02 0.00 71 1015.6
20190521011929 55 149 3.0 11.0 0.00 0.02 0.00 70 1015.6
20190521011428 55 141 3.0 12.0 0.00 0.02 0.00 70 1015.6
20190521010927 55 135 4.0 12.0 0.00 0.02 0.00 70 1015.3
20190521010428 55 135 5.0 12.0 0.00 0.02 0.00 70 1015.5
20190521005928 55 172 6.0 12.0 0.00 0.02 0.00 70 1015.3
20190521005428 55 133 3.0 9.0 0.00 0.02 0.00 72 1015.1
20190521004930 55 147 2.0 6.0 0.00 0.02 0.00 73 1015.1
20190521004427 55 173 2.0 15.0 0.00 0.02 0.00 73 1014.9
20190521003927 55 144 5.0 15.0 0.00 0.02 0.00 73 1014.9
20190521003429 55 149 1.0 9.0 0.00 0.02 0.00 75 1014.9
20190521002926 55 152 2.0 9.0 0.00 0.02 0.00 75 1014.9
20190521002426 55 147 5.0 9.0 0.00 0.02 0.00 75 1014.8
20190521001927 55 155 2.0 10.0 0.00 0.02 0.00 76 1014.7
20190521001424 55 141 2.0 10.0 0.00 0.02 0.00 77 1014.6
20190521000924 56 131 3.0 10.0 0.00 0.02 0.00 76 1014.8
20190521000426 56 142 5.0 11.0 0.00 0.02 0.00 77 1014.7
20190520235925 56 90 3.0 13.0 0.00 0.02 0.00 78 1014.5
20190520235424 56 166 2.0 13.0 0.00 0.02 0.00 78 1014.4
20190520234924 56 169 3.0 11.0 0.00 0.02 0.00 78 1014.4
20190520234426 57 145 3.0 11.0 0.00 0.02 0.00 78 1014.2
20190520233926 57 133 2.0 10.0 0.00 0.02 0.00 78 1014.3
20190520233427 57 164 4.0 10.0 0.00 0.02 0.00 78 1014.1
20190520232929 57 134 3.0 9.0 0.00 0.02 0.00 79 1014.1
20190520232427 58 169 1.0 9.0 0.00 0.02 0.00 78 1013.9
20190520231928 58 159 2.0 9.0 0.00 0.02 0.00 78 1013.7
20190520231425 58 171 3.0 9.0 0.00 0.02 0.00 77 1013.6
20190520230927 59 165 2.0 5.0 0.00 0.02 0.00 77 1013.5
20190520230427 59 133 1.0 5.0 0.00 0.02 0.00 78 1013.4
20190520225927 59 133 0.0 5.0 0.00 0.02 0.00 78 1013.4
20190520225425 59 157 1.0 5.0 0.00 0.02 0.00 77 1013.4
20190520224926 59 165 1.0 4.0 0.00 0.02 0.00 77 1013.4
20190520224425 59 144 2.0 6.0 0.00 0.02 0.00 76 1013.5
20190520223924 60 141 2.0 11.0 0.00 0.02 0.00 75 1013.5
20190520223427 60 140 4.0 11.0 0.00 0.02 0.00 73 1013.4
20190520222926 61 130 2.0 14.0 0.00 0.02 0.00 70 1013.4
20190520222426 62 142 8.0 14.0 0.00 0.02 0.00 67 1013.3
20190520221927 62 135 4.0 13.0 0.00 0.02 0.00 68 1013.2